Regional Weather Roundup
Issued by NWS Upton, NY

Current Version | Previous Version | Graphics & Text | Print | Product List | Glossary Off
Versions: 1 2 3 4 5 6 7 8 9 10 11 12 13 14 15 16 17 18 19 20 21 22 23 24 25 26 27 28 29 30 31 32 33 34 35 36 37 38 39 40 41 42 43 44 45 46 47 48 49 50

000
ASUS41 KOKX 011208
RWROKX

REGIONAL WEATHER ROUNDUP
NATIONAL WEATHER SERVICE NEW YORK NY
800 AM EDT WED APR 01 2015

NOTE: "FAIR" INDICATES FEW OR NO CLOUDS BELOW 12,000 FEET WITH NO
SIGNIFICANT WEATHER AND/OR OBSTRUCTIONS TO VISIBILITY.

NYZ071-072-176-178-NJZ106-104-011300-
NEW YORK CITY METRO AREA


CITY           SKY/WX    TMP DP  RH WIND       PRES   REMARKS
CENTRAL PARK   PTSUNNY   33  20  58 CALM      30.03R
LAGUARDIA APRT PTSUNNY   34  20  56 N7        30.01R WCI  28
KENNEDY INTL   PTSUNNY   35  22  58 N6        30.02R WCI  30
NEWARK/LIBERTY PTSUNNY   36  17  46 NW10      30.02R WCI  28
BRNX BOT. GARD   N/A    N/A N/A N/A SE1       30.03R
TETERBORO      PTSUNNY   34  19  54 NW6       30.01R WCI  29
$$

NYZ177-179-078>081-011300-
LONG ISLAND NEW YORK

CITY           SKY/WX    TMP DP  RH WIND       PRES   REMARKS
FARMINGDALE    MOSUNNY   34  16  47 N8        30.00R WCI  27
ISLIP          PTSUNNY   34  17  50 N12       29.98R WCI  25
SHIRLEY        MOSUNNY   35  24  64 N8        30.00R WCI  29
WESTHAMPTON    MOSUNNY   34  22  61 N7        29.99R WCI  28
MONTAUK POINT    N/A     36  17  46 N10G20    29.96R WCI  28
$$

NYZ052-065-067-011300-
HUDSON VALLEY

CITY           SKY/WX    TMP DP  RH WIND       PRES   REMARKS
WHITE PLAINS   PTSUNNY   32  15  49 N9        29.97R WCI  24
NEWBURGH       MOSUNNY   25  25 100 CALM      30.00
MONTGOMERY     FAIR      25  25 100 CALM      30.00R
POUGHKEEPSIE   PTSUNNY   27  23  85 CALM      30.01R
ALBANY         MOSUNNY   29  13  51 NE3       30.02R
$$

NJZ001-105-106-008-010-013-015-019>022-104-011300-
NEW JERSEY

CITY           SKY/WX    TMP DP  RH WIND       PRES   REMARKS
NEWARK/LIBERTY PTSUNNY   36  17  46 NW10      30.02R WCI  28
TETERBORO      PTSUNNY   34  19  54 NW6       30.01R WCI  29
CALDWELL       PTSUNNY   31  21  66 CALM      30.03R
MORRISTOWN     PTSUNNY   30  23  74 NW3       30.02R
SOMERVILLE     PTSUNNY   32  20  61 CALM      30.03R
SUSSEX         PTSUNNY   29  18  63 NW8       30.02R WCI  21
ANDOVER        NOT AVBL
TRENTON        MOSUNNY   33  18  53 NW7       30.04R WCI  27
MILLVILLE      SUNNY     35  27  72 NW8       30.06R WCI  29
ATLANTIC CITY  SUNNY     34  25  69 NW8       30.04R WCI  27
WRIGHTSTOWN    MOSUNNY   34  21  60 NW6       30.02R WCI  28
TOMS RIVER     MOSUNNY   32  25  74 NW5       30.04R WCI  27
BELMAR         MOSUNNY   34  21  60 NW8       30.02R WCI  27
$$

PAZ047>061-062-071-011300-
EASTERN PENNSYLVANIA

CITY           SKY/WX    TMP DP  RH WIND       PRES   REMARKS
PHILADELPHIA   MOSUNNY   36  24  62 NW3       30.08R
ALLENTOWN      PTSUNNY   33  24  69 NW5       30.05R WCI  29
SCRANTON       MOSUNNY   23  20  88 CALM      30.02R
$$

CTZ002-004>006-009-010-012-RIZ004-006-007-MAZ004-011-015-011300-
SOUTHERN NEW ENGLAND
 IN CT

CITY           SKY/WX    TMP DP  RH WIND       PRES   REMARKS
BRADLEY INTL   PTSUNNY   34  13  41 N7        29.98R WCI  28
HARTFORD       SUNNY     33  15  47 VRB7      29.99R WCI  27
DANBURY        PTSUNNY   31  11  43 N9        30.00R WCI  23
WTRBRY/OXFORD  PTSUNNY   28  10  47 N12       29.98R WCI  18
BRIDGEPORT     MOSUNNY   34  15  46 NW7G16    29.99R WCI  28
MERIDEN        MOSUNNY   33  16  49 NW8       29.99R WCI  26
NEW HAVEN      PTSUNNY   35  16  45 NW10      29.98R WCI  27
CHESTER        FAIR      32  10  40 N9        29.96R WCI  24
GROTON         MOSUNNY   33  15  47 N10       29.96R WCI  25
WILLIMANTIC    SUNNY     32  12  43 N6        29.97R WCI  26

 IN RI

CITY           SKY/WX    TMP DP  RH WIND       PRES   REMARKS
PROVIDENCE     PTSUNNY   34   5  29 N13       29.96R WCI  25
BLOCK ISLAND   MOSUNNY   34  12  40 N15G23    29.93R WCI  24
WESTERLY       SUNNY     33  12  41 N13       29.96R WCI  24

 IN MA

CITY           SKY/WX    TMP DP  RH WIND       PRES   REMARKS
BOSTON         MOSUNNY   32   7  35 N8        29.97R WCI  25
WORCESTER      SUNNY     29   3  33 N15       29.92R WCI  18
WESTFIELD      SUNNY     32  12  43 N5        29.98R WCI  27
PROVINCETOWN   SUNNY     36  18  48 N17G24    29.93R WCI  25
NANTUCKET      MOSUNNY   37  23  56 N22G29    29.87R WCI  26
$$

ANZ330-335-338-340-345-350-353-355-011300-
COASTAL MARINE OBSERVATIONS


STATION/POSITION TIME  SKY/WX   TEMP    WIND        PRES    VSBY  WAVE
                                AIR SEA DIR/SP/G                  HT/PER
                 (UTC)          (F)     (DEG/KT/KT) (MB)    (MI)  (FT/S)
NY HARB ENTRANCE 1150            36 39  350/ 14/ 17 1015.5          3/ 8
4S FIRE IS       1103               37                N/A           3/ 8
20S FIRE ISLAND  NOT AVBL
23SW MTP         1150                                 N/A           4/ 8
HUDSON CANYON    NOT AVBL
EXECUTION ROCKS  NOT AVBL
WESTERN LI SOUND NOT AVBL
CENTRAL LI SOUND NOT AVBL
EASTERN LI SOUND NOT AVBL
ROBBINS REEF     1100            34     360/ 12/ 15 1013.9
$$


>>>>>>>>>>>>>>>>>>>>>>>>>>>> KEY <<<<<<<<<<<<<<<<<<<<<<<<<<<
>                                                          <
>     SKY/WX - SKY CONDITION/PRESENT WEATHER               <
>     TMP    - TEMPERATURE IN FAHRENHEIT                   <
>     DP     - DEWPOINT IN FAHRENHEIT                      <
>     RH     - RELATIVE HUMIDITY IN PERCENT                <
>     WIND   - DIRECTION AND SPEED IN MPH                  <
>     PRES   - MEAN SEA LEVEL PRESSURE IN INCHES OF HG     <
>     WCI    - WIND CHILL INDEX                            <
>     VSB    - VISIBILITY IN MILES                         <
>     HX     - HEAT INDEX                                  <
>     TC     - TEMPERATURE IN CELSIUS                      <
>     VRB    - VARIABLE WIND DIRECTION                     <
>                                                          <
>>>>>>>>>>>>>>>>>>>>>>>>>>>> KEY <<<<<<<<<<<<<<<<<<<<<<<<<<<




USA.gov is the U.S. government's official web portal to all federal, state and local government web resources and services.